sat.trackr.live / text

‹ back to catalog

TRANSPORTER-13 OBJECT M

NORAD 63221 · 2025-052M

PAYLOAD ACTIVE UNKNOWN

§ Identity

Operator
Country
TBD
Launch date
2025-03-15
Launch site
AFWTR
Launch vehicle
Mass (kg)
RCS (m²)

External: N2YO · Heavens-Above · Gunter

§ Orbital elements

Epoch: 2026-09-22T16:34:55.697088Z

Period
94.58 min
Inclination
97.3732°
Eccentricity
0.0004285
Mean motion
15.22503828 rev/d
Perigee alt
495.3 km
Apogee alt
501.2 km
Semi-major
6,876.4 km
B*
1.0870e-4
RAAN
156.0671°
Arg perigee
136.6398°
Mean anomaly
223.5176°
Rev number
8,467

§ Raw data

TRANSPORTER-13 OBJECT M1 63221U 25052M   26265.69092242  .00002450  00000+0  10870-3 0  99922 63221  97.3732 156.0671 0004285 136.6398 223.5176 15.22503828 84675

JSON: /api/v1/satellites/63221 · /tle

For live sub-satellite position, see the globe view (requires WebGL).

§ Visibility from observer

Set your observer location to see the next 7 days of passes ≥ 10°. The values pass through the URL so the page stays shareable.

No JS? Fill the form by hand. The geolocation button needs JavaScript.